FW8606 Weather Reports


time (UTC)temp
C
wind
direction
speed
KPH
gust
KPH
rain 1hr
cm
rain 24hr
cm
rain mn
cm
humidity
%
barometer
mb
20260504081904 15 309 0.0 0.0 0.00 0.00 0.00 61 1011.7
20260504081400 15 290 0.0 0.0 0.00 0.00 0.00 61 1011.7
20260504080856 15 268 1.6 4.8 0.00 0.00 0.00 61 1011.7
20260504080354 15 290 0.0 1.6 0.00 0.00 0.00 62 1011.7
20260504070321 14 301 0.0 0.0 0.00 0.00 0.00 62 1012.0
20260504060241 13 276 4.8 8.0 0.00 0.00 0.00 62 1012.7
20260504050709 11 341 0.0 0.0 0.00 0.00 0.00 72 1013.0
20260504050206 11 342 0.0 0.0 0.00 0.00 0.00 72 1013.8
20260504045703 11 355 0.0 1.6 0.00 0.00 0.00 73 1013.5
20260504045203 11 345 0.0 0.0 0.00 0.00 0.00 73 1013.8
20260504044702 11 342 0.0 0.0 0.00 0.00 0.00 72 1013.8
20260504044159 11 342 0.0 0.0 0.00 0.00 0.00 72 1013.8
20260504043655 11 346 0.0 0.0 0.00 0.00 0.00 71 1013.5
20260504043152 11 0 0.0 1.6 0.00 0.00 0.00 72 1013.5
20260504042650 11 341 0.0 0.0 0.00 0.00 0.00 73 1013.8
20260504042146 11 340 0.0 0.0 0.00 0.00 0.00 73 1013.8
20260504041642 11 340 0.0 0.0 0.00 0.00 0.00 73 1013.5
20260504041138 11 340 0.0 0.0 0.00 0.00 0.00 74 1013.8
20260504040636 11 338 0.0 0.0 0.00 0.00 0.00 75 1014.2
20260504040133 11 330 0.0 1.6 0.00 0.00 0.00 75 1013.8
20260504035629 11 340 0.0 0.0 0.00 0.00 0.00 75 1014.2
20260504035126 11 341 0.0 0.0 0.00 0.00 0.00 74 1014.2
20260504034624 11 342 0.0 0.0 0.00 0.00 0.00 75 1014.2
20260504034120 11 340 0.0 0.0 0.00 0.00 0.00 75 1014.2
20260504033618 11 339 0.0 0.0 0.00 0.00 0.00 75 1014.2
20260504033115 11 345 0.0 0.0 0.00 0.00 0.00 75 1014.2
20260504032612 11 345 0.0 0.0 0.00 0.00 0.00 75 1014.5
20260504032109 11 345 0.0 0.0 0.00 0.00 0.00 73 1014.2
20260504031606 11 345 0.0 0.0 0.00 0.00 0.00 73 1014.5
20260504031102 12 347 0.0 0.0 0.00 0.00 0.00 71 1014.5
20260504030559 12 4 1.6 1.6 0.00 0.00 0.00 70 1014.2
20260504030056 12 343 0.0 0.0 0.00 0.00 0.00 69 1014.2
20260504025553 12 348 0.0 0.0 0.00 0.00 0.00 68 1014.5
20260504025050 12 342 0.0 0.0 0.00 0.00 0.00 69 1014.5
20260504024547 12 10 1.6 4.8 0.00 0.00 0.00 70 1014.5
20260504024043 12 333 0.0 0.0 0.00 0.00 0.00 70 1014.5
20260504023540 12 321 0.0 0.0 0.00 0.00 0.00 73 1014.5
20260504023036 12 321 0.0 0.0 0.00 0.00 0.00 70 1014.5
20260504022532 12 321 0.0 0.0 0.00 0.00 0.00 69 1014.5
20260504022029 12 322 0.0 0.0 0.00 0.00 0.00 68 1014.5
20260504021526 12 321 0.0 0.0 0.00 0.00 0.00 66 1014.5
20260504021023 12 321 0.0 0.0 0.00 0.00 0.00 68 1014.5
20260504020520 13 322 0.0 0.0 0.00 0.00 0.00 70 1014.8
20260504020016 12 322 0.0 0.0 0.00 0.00 0.00 66 1014.5
20260504015513 13 322 0.0 0.0 0.00 0.00 0.00 63 1014.5
20260504015009 13 322 0.0 0.0 0.00 0.00 0.00 61 1014.5
20260504014505 13 322 0.0 0.0 0.00 0.00 0.00 58 1014.5
20260504014002 13 322 0.0 0.0 0.00 0.00 0.00 57 1014.2
20260504013500 14 321 0.0 0.0 0.00 0.00 0.00 57 1014.2
20260504012955 14 322 0.0 0.0 0.00 0.00 0.00 55 1014.2
20260504012454 15 322 0.0 0.0 0.00 0.00 0.00 55 1013.8
20260504011952 15 322 0.0 0.0 0.00 0.00 0.00 55 1013.8
20260504011448 15 322 0.0 0.0 0.00 0.00 0.00 54 1013.8
20260504010944 15 322 0.0 0.0 0.00 0.00 0.00 53 1013.8
20260504010440 15 317 0.0 0.0 0.00 0.00 0.00 53 1013.8
20260504005936 16 316 0.0 0.0 0.00 0.00 0.00 51 1013.8
20260504005433 16 342 0.0 0.0 0.00 0.00 0.00 50 1013.8
20260504004931 16 250 3.2 4.8 0.00 0.00 0.00 49 1013.5
20260504004428 16 302 0.0 0.0 0.00 0.00 0.00 49 1013.8
20260504003925 16 300 0.0 1.6 0.00 0.00 0.00 50 1013.5
20260504003421 17 304 0.0 0.0 0.00 0.00 0.00 50 1013.8
20260504002918 17 342 0.0 0.0 0.00 0.00 0.00 50 1013.8
20260504002415 17 305 0.0 0.0 0.00 0.00 0.00 48 1013.8
20260504001913 18 260 3.2 6.4 0.00 0.00 0.00 45 1013.8
20260504001410 18 282 0.0 0.0 0.00 0.00 0.00 45 1013.8
20260504000906 18 269 3.2 6.4 0.00 0.00 0.00 44 1014.2
20260504000404 18 213 4.8 6.4 0.00 0.00 0.00 43 1014.2
20260503235901 18 193 9.7 12.9 0.00 0.00 0.00 43 1014.2
20260503235359 18 266 1.6 1.6 0.00 0.00 0.00 43 1014.2
20260503234856 18 279 1.6 1.6 0.00 0.00 0.00 43 1014.2
20260503234354 19 264 4.8 8.0 0.00 0.00 0.00 42 1014.2
20260503233851 19 251 3.2 4.8 0.00 0.00 0.00 42 1014.5
20260503233347 19 257 8.0 11.3 0.00 0.00 0.00 41 1014.2
20260503232843 19 302 0.0 1.6 0.00 0.00 0.00 42 1014.2
20260503232341 20 266 3.2 6.4 0.00 0.00 0.00 42 1014.5
20260503231839 20 283 3.2 8.0 0.00 0.00 0.00 41 1014.2
20260503231336 20 250 3.2 6.4 0.00 0.00 0.00 41 1014.2
20260503230832 20 280 4.8 6.4 0.00 0.00 0.00 40 1014.2
20260503230329 20 282 14.5 17.7 0.00 0.00 0.00 40 1014.2
20260503225827 20 223 6.4 11.3 0.00 0.00 0.00 40 1014.5
20260503225322 20 269 9.7 12.9 0.00 0.00 0.00 39 1014.8
20260503224818 20 189 6.4 8.0 0.00 0.00 0.00 39 1014.8
20260503224316 20 264 4.8 6.4 0.00 0.00 0.00 40 1014.8
20260503223814 20 292 3.2 6.4 0.00 0.00 0.00 40 1015.2
20260503223311 20 230 8.0 11.3 0.00 0.00 0.00 39 1015.2
20260503222807 20 240 12.9 16.1 0.00 0.00 0.00 39 1015.2
20260503222305 20 265 4.8 8.0 0.00 0.00 0.00 39 1015.2
20260503221803 20 300 1.6 1.6 0.00 0.00 0.00 40 1015.2
20260503221301 20 250 6.4 8.0 0.00 0.00 0.00 40 1015.2
20260503220757 20 212 4.8 6.4 0.00 0.00 0.00 40 1015.2
20260503220254 20 262 6.4 8.0 0.00 0.00 0.00 40 1015.2
20260503215751 20 298 1.6 1.6 0.00 0.00 0.00 41 1015.5
20260503215248 20 214 8.0 11.3 0.00 0.00 0.00 39 1015.5
20260503214746 20 223 9.7 12.9 0.00 0.00 0.00 40 1015.8
20260503214242 20 227 4.8 6.4 0.00 0.00 0.00 39 1015.8
20260503213741 20 249 11.3 12.9 0.00 0.00 0.00 39 1015.8
20260503213238 20 251 11.3 16.1 0.00 0.00 0.00 38 1016.2
20260503212734 20 302 4.8 6.4 0.00 0.00 0.00 40 1016.2
20260503212232 20 257 4.8 6.4 0.00 0.00 0.00 38 1016.5
20260503211729 20 259 4.8 8.0 0.00 0.00 0.00 39 1016.2
20260503211225 20 226 6.4 11.3 0.00 0.00 0.00 40 1016.5
20260503210721 20 259 4.8 6.4 0.00 0.00 0.00 39 1016.5
20260503210219 20 272 11.3 12.9 0.00 0.00 0.00 40 1016.5
20260503205714 20 225 4.8 6.4 0.00 0.00 0.00 41 1016.9
20260503205210 20 206 6.4 8.0 0.00 0.00 0.00 39 1016.9
20260503204707 20 259 4.8 8.0 0.00 0.00 0.00 39 1016.9
20260503204205 20 287 4.8 6.4 0.00 0.00 0.00 42 1016.9
20260503203701 20 268 8.0 11.3 0.00 0.00 0.00 41 1017.2
20260503203159 20 227 4.8 6.4 0.00 0.00 0.00 41 1017.2
20260503202656 20 191 9.7 11.3 0.00 0.00 0.00 40 1017.5
20260503202154 19 303 4.8 8.0 0.00 0.00 0.00 41 1017.5
20260503201652 20 258 8.0 11.3 0.00 0.00 0.00 41 1017.5
20260503201149 19 309 1.6 1.6 0.00 0.00 0.00 43 1017.5
20260503200645 19 262 6.4 8.0 0.00 0.00 0.00 43 1017.5
20260503200141 19 243 3.2 6.4 0.00 0.00 0.00 45 1017.9
20260503195638 20 288 8.0 12.9 0.00 0.00 0.00 41 1017.9
20260503195135 18 242 8.0 11.3 0.00 0.00 0.00 41 1017.9
20260503194632 18 283 3.2 4.8 0.00 0.00 0.00 44 1017.9
20260503194128 18 259 4.8 6.4 0.00 0.00 0.00 43 1018.6
20260503193625 19 196 9.7 11.3 0.00 0.00 0.00 43 1018.6
20260503193120 19 206 3.2 4.8 0.00 0.00 0.00 44 1018.6
20260503192616 18 240 4.8 6.4 0.00 0.00 0.00 44 1018.6
20260503192112 18 186 11.3 12.9 0.00 0.00 0.00 43 1018.9
20260503191609 18 332 8.0 12.9 0.00 0.00 0.00 43 1018.9
20260503191106 18 200 4.8 6.4 0.00 0.00 0.00 45 1018.9
20260503190604 18 281 0.0 1.6 0.00 0.00 0.00 45 1018.9
20260503190100 18 241 4.8 6.4 0.00 0.00 0.00 46 1019.2
20260503185556 18 239 4.8 8.0 0.00 0.00 0.00 47 1019.2
20260503185056 18 273 4.8 6.4 0.00 0.00 0.00 47 1019.6
20260503184552 18 303 4.8 8.0 0.00 0.00 0.00 45 1019.2
20260503184049 18 301 3.2 4.8 0.00 0.00 0.00 45 1019.6
20260503183545 18 298 3.2 4.8 0.00 0.00 0.00 45 1019.6
20260503183043 18 276 4.8 6.4 0.00 0.00 0.00 45 1019.6
20260503182541 18 230 4.8 6.4 0.00 0.00 0.00 45 1019.9
20260503182039 18 285 3.2 4.8 0.00 0.00 0.00 44 1019.9
20260503181535 18 203 3.2 11.3 0.00 0.00 0.00 46 1019.9
20260503181032 18 304 3.2 4.8 0.00 0.00 0.00 46 1019.9
20260503180529 18 171 4.8 6.4 0.00 0.00 0.00 42 1019.9
20260503180026 17 222 3.2 6.4 0.00 0.00 0.00 45 1020.3
20260503175524 17 309 1.6 1.6 0.00 0.00 0.00 53 1020.3
20260503175020 17 226 6.4 8.0 0.00 0.00 0.00 44 1020.3
20260503174518 17 195 3.2 4.8 0.00 0.00 0.00 44 1020.3
20260503174014 17 320 4.8 8.0 0.00 0.00 0.00 47 1020.3
20260503173509 17 278 1.6 1.6 0.00 0.00 0.00 46 1020.7
20260503173006 17 174 3.2 6.4 0.00 0.00 0.00 47 1020.7
20260503172504 17 289 3.2 4.8 0.00 0.00 0.00 45 1020.7
20260503172001 17 242 4.8 8.0 0.00 0.00 0.00 49 1020.7
20260503171457 16 243 3.2 4.8 0.00 0.00 0.00 47 1020.7
20260503170954 17 253 6.4 8.0 0.00 0.00 0.00 46 1020.7
20260503170450 17 256 4.8 8.0 0.00 0.00 0.00 45 1020.7
20260503150843 13 224 4.8 4.8 0.00 0.00 0.00 58 1022.0
20260503150339 13 258 8.0 11.3 0.00 0.00 0.00 58 1022.0
20260503140303 12 292 0.0 1.6 0.00 0.00 0.00 73 1022.0
20260503131233 10 317 0.0 0.0 0.00 0.00 0.00 99 1022.0
20260503130730 10 337 0.0 0.0 0.00 0.00 0.00 99 1022.0
20260503130227 9 326 0.0 0.0 0.00 0.00 0.00 99 1022.0
20260503120153 2 329 0.0 0.0 0.00 0.00 0.00 99 1021.7
20260503110621 1 337 0.0 0.0 0.00 0.00 0.00 99 1021.4
20260503110118 1 337 0.0 0.0 0.00 0.00 0.00 99 1021.4